STARLINK-4414, 53213

Orbit data source: Space-Track

STARLINK-4414, 53213 is a payload satellite owned by SpaceX/Seattle (US) in SSO that was launched on Fri, 22 Jul 2022 UTC via an FALCON 9 launch vehicle from the Air Force Western Test Range (AFWTR). Payload-class satellites include a variety of spacecraft equipped with specific instruments for various scientific and technological missions. These include communications satellites like Starlink; space stations such as the ISS; scientific satellites like the Hubble; Earth observation satellites from companies like Planet Labs, Umbra, and HawkEye 360; GPS; miniature CubeSats for education and research; and military/defense satellites.

Loading next visibility...
Identifier
53213, 2022-084AA
Orbit
SSO
Country
Flag of USUS
Related business
Manufacturer
SpaceX/Seattle
Mission
Operational Commercial Communications
Bus & Motor
STARLINK, Unknown motor
Mass
297 kg wet, ~275 kg dry
Launch date (UTC)
2022-07-22 (4 years ago)
Launch vehicle
FALCON 9
Launch site
Air Force Western Test Range (AFWTR)
Object type
Payload
Rocket body
Debris
Shape & HBR
Box + 1 Pan, 10.1 m
Radar Cross Section
13.562 m², Large (>1 m²)

Expand to show TLE details & history
Last TLE update: 2 days ago

TLE from 2 days ago
0 STARLINK-4414
1 53213U 22084AA  26171.39747264 -.00004989  00000-0 -34180-3 0  9990
2 53213  97.3389 230.2514 0001732 131.8233 228.3143 15.05681087215288
Epoch: 2026-06-20T09:32Z
TLE epoch observation values (Epoch: 2026-06-20T09:32:21.636Z)
Latitude
0.00004°
Longitude
178.54857°
Altitude
553.287 km
Speed
7.585 km/s
True Right ascension
15h 21m 00s
True Declination
0° 00' 00"
Sunlit
Object was in full shadow at epoch
Visualization orbit readout
Latitude
Unknown
Longitude
Unknown
Altitude
Unknown
Speed
Unknown
Apparent Right ascension
Unknown
Apparent Declination
Unknown
Sunlit
N/A
Visualization observer readout
Local Sidereal Time
21:31:53
Azimuth
Unknown
Elevation
Unknown
Doppler factor
Unknown
Orbital elements
Apogee altitude
547.597 km
Perigee altitude
545.199 km
Semi-major axis
6,924.535 km
Eccentricity
0.00017
Inclination
97.3389°
RAAN
230.2514°
Arg. of periapsis
131.8233°
True anomaly
228.29948°
Mean anomaly
228.3143°
Eccentric anomaly
228.30689°
Mean motion
3.76667 °/min
Orbital period
95.58 mins
BSTAR
-0.0003418
Loading maneuver chart data...
Computing Atmospheric mass density...
Loading historical data...
Loading historical data...
Loading historical data...
Loading historical data...
Loading historical data...
Loading historical data...
Loading historical data...

Documentation

Showing up to 5 results
|